• In Netherlands
  • List of Countries
  • For 7 days
  • Water Temperature
  • Satellite Maps
  • Weather Map
  • Weather Widgets
  • user-avatar
    Login

    Hourly Weather Vanadzor

    Today, 22 July, Saturday

    Time Temperature Precipitation Wind Pressure Humidity
    00:00 +17°C° 0 mm 2 mps 636 mmHg 53%
    01:00 +17°C° 0 mm 2 mps 636 mmHg 54%
    02:00 +16°C° 0 mm 2 mps 636 mmHg 55%
    03:00 +16°C° 0 mm 2 mps 635 mmHg 55%
    04:00 +16°C° 0 mm 2 mps 636 mmHg 56%
    05:00 +16°C° 0 mm 2 mps 636 mmHg 58%
    06:00 +16°C° 0 mm 2 mps 636 mmHg 59%
    07:00 +19°C° 0 mm 2 mps 637 mmHg 54%
    08:00 +21°C° 0 mm 2 mps 638 mmHg 49%
    09:00 +24°C° 0 mm 2 mps 638 mmHg 43%
    10:00 +26°C° 0 mm 2 mps 638 mmHg 42%
    11:00 +27°C° 0 mm 2 mps 639 mmHg 40%
    12:00 +28°C° 0 mm 3 mps 639 mmHg 39%
    13:00 +28°C° 0 mm 3 mps 638 mmHg 39%
    14:00 +29°C° 0 mm 3 mps 638 mmHg 40%
    15:00 +28°C° 0 mm 3 mps 638 mmHg 41%
    16:00 +27°C° 0 mm 3 mps 638 mmHg 46%
    17:00 +26°C° 0 mm 3 mps 638 mmHg 51%
    18:00 +25°C° 0 mm 3 mps 637 mmHg 55%
    19:00 +23°C° 0 mm 2 mps 637 mmHg 59%
    20:00 +20°C° 0 mm 2 mps 636 mmHg 63%
    21:00 +18°C° 0 mm 2 mps 636 mmHg 66%
    22:00 +17°C° 0 mm 2 mps 636 mmHg 67%
    23:00 +17°C° 0 mm 2 mps 636 mmHg 67%

    Tomorrow, 23 July, Sunday

    Time Temperature Precipitation Wind Pressure Humidity
    00:00 +16°C° 0 mm 2 mps 636 mmHg 68%
    01:00 +16°C° 0 mm 2 mps 636 mmHg 69%
    02:00 +15°C° 0 mm 2 mps 635 mmHg 70%
    03:00 +15°C° 0 mm 2 mps 635 mmHg 71%
    04:00 +15°C° 0 mm 2 mps 635 mmHg 70%
    05:00 +16°C° 0 mm 2 mps 636 mmHg 70%
    06:00 +16°C° 0 mm 2 mps 636 mmHg 69%
    07:00 +19°C° 0 mm 2 mps 636 mmHg 62%
    08:00 +21°C° 0 mm 2 mps 637 mmHg 55%
    09:00 +24°C° 0 mm 1 mps 637 mmHg 48%
    10:00 +25°C° 0 mm 2 mps 637 mmHg 46%
    11:00 +27°C° 0 mm 2 mps 637 mmHg 44%
    12:00 +28°C° 0 mm 2 mps 637 mmHg 42%
    13:00 +28°C° 0 mm 2 mps 637 mmHg 43%
    14:00 +28°C° 0 mm 2 mps 637 mmHg 44%
    15:00 +29°C° 0 mm 3 mps 636 mmHg 45%
    16:00 +27°C° 0.6 mm 3 mps 636 mmHg 50%
    17:00 +26°C° 0.6 mm 3 mps 636 mmHg 55%
    18:00 +25°C° 0.6 mm 3 mps 635 mmHg 60%
    19:00 +22°C° 0.3 mm 3 mps 635 mmHg 67%
    20:00 +20°C° 0.3 mm 2 mps 635 mmHg 74%
    21:00 +18°C° 0.3 mm 2 mps 635 mmHg 80%
    22:00 +17°C° 0.1 mm 2 mps 635 mmHg 83%
    23:00 +17°C° 0.1 mm 2 mps 635 mmHg 86%

    Day after tomorrow, 24 July, Monday

    Time Temperature Precipitation Wind Pressure Humidity
    00:00 +16°C° 0.1 mm 2 mps 635 mmHg 89%
    01:00 +16°C° 0 mm 2 mps 635 mmHg 90%
    02:00 +15°C° 0 mm 2 mps 635 mmHg 91%
    03:00 +15°C° 0 mm 2 mps 634 mmHg 92%
    04:00 +15°C° 0 mm 2 mps 634 mmHg 91%
    05:00 +15°C° 0 mm 2 mps 634 mmHg 90%
    06:00 +16°C° 0 mm 2 mps 634 mmHg 89%
    07:00 +17°C° 0 mm 2 mps 635 mmHg 80%
    08:00 +19°C° 0 mm 2 mps 635 mmHg 72%
    09:00 +21°C° 0 mm 2 mps 635 mmHg 63%
    10:00 +24°C° 0.1 mm 2 mps 635 mmHg 59%
    11:00 +25°C° 0.1 mm 3 mps 635 mmHg 55%
    12:00 +26°C° 0.1 mm 3 mps 635 mmHg 50%
    13:00 +26°C° 0.2 mm 3 mps 635 mmHg 50%
    14:00 +27°C° 0.2 mm 3 mps 635 mmHg 50%
    15:00 +27°C° 0.2 mm 3 mps 634 mmHg 50%
    16:00 +26°C° 0.8 mm 3 mps 634 mmHg 54%
    17:00 +25°C° 0.8 mm 3 mps 634 mmHg 58%
    18:00 +24°C° 0.8 mm 3 mps 633 mmHg 62%
    19:00 +22°C° 0.5 mm 3 mps 633 mmHg 66%
    20:00 +20°C° 0.5 mm 3 mps 633 mmHg 71%
    21:00 +18°C° 0.5 mm 2 mps 633 mmHg 75%
    22:00 +17°C° 0.4 mm 2 mps 633 mmHg 78%
    23:00 +17°C° 0.4 mm 2 mps 633 mmHg 80%

    25 July, Tuesday

    Time Temperature Precipitation Wind Pressure Humidity
    00:00 +16°C° 0.4 mm 2 mps 633 mmHg 83%
    01:00 +16°C° 0 mm 2 mps 633 mmHg 82%
    02:00 +15°C° 0 mm 2 mps 633 mmHg 82%
    03:00 +14°C° 0 mm 2 mps 632 mmHg 82%
    04:00 +15°C° 0 mm 2 mps 632 mmHg 80%
    05:00 +15°C° 0 mm 2 mps 632 mmHg 79%
    06:00 +15°C° 0 mm 2 mps 633 mmHg 77%
    07:00 +17°C° 0 mm 2 mps 633 mmHg 70%
    08:00 +20°C° 0 mm 2 mps 634 mmHg 63%
    09:00 +23°C° 0 mm 2 mps 634 mmHg 56%
    10:00 +24°C° 0.1 mm 2 mps 634 mmHg 53%
    11:00 +26°C° 0.1 mm 2 mps 634 mmHg 49%
    12:00 +27°C° 0.1 mm 2 mps 634 mmHg 46%
    13:00 +27°C° 0.2 mm 2 mps 634 mmHg 45%
    14:00 +28°C° 0.2 mm 3 mps 634 mmHg 45%
    15:00 +28°C° 0.2 mm 3 mps 633 mmHg 44%
    16:00 +27°C° 0.7 mm 2 mps 633 mmHg 48%
    17:00 +26°C° 0.7 mm 2 mps 633 mmHg 53%
    18:00 +26°C° 0.7 mm 2 mps 633 mmHg 57%
    19:00 +23°C° 0.2 mm 2 mps 633 mmHg 65%
    20:00 +20°C° 0.2 mm 2 mps 633 mmHg 72%
    21:00 +18°C° 0.2 mm 2 mps 632 mmHg 79%
    22:00 +17°C° 0.1 mm 2 mps 632 mmHg 78%
    23:00 +17°C° 0.1 mm 2 mps 632 mmHg 77%

    26 July, Wednesday

    Time Temperature Precipitation Wind Pressure Humidity
    00:00 +16°C° 0.1 mm 2 mps 632 mmHg 76%
    01:00 +16°C° 0 mm 2 mps 632 mmHg 76%
    02:00 +16°C° 0 mm 2 mps 632 mmHg 75%
    03:00 +15°C° 0 mm 2 mps 632 mmHg 75%
    04:00 +16°C° 0 mm 2 mps 632 mmHg 75%
    05:00 +16°C° 0 mm 1 mps 633 mmHg 75%
    06:00 +18°C° 0 mm 1 mps 633 mmHg 75%
    07:00 +20°C° 0 mm 1 mps 633 mmHg 66%
    08:00 +23°C° 0 mm 1 mps 634 mmHg 57%
    09:00 +26°C° 0 mm 1 mps 635 mmHg 48%
    10:00 +27°C° 0 mm 2 mps 635 mmHg 44%
    11:00 +28°C° 0 mm 2 mps 635 mmHg 40%
    12:00 +29°C° 0 mm 2 mps 635 mmHg 36%
    13:00 +30°C° 0 mm 2 mps 635 mmHg 34%
    14:00 +30°C° 0 mm 2 mps 635 mmHg 33%
    15:00 +31°C° 0 mm 2 mps 635 mmHg 31%
    16:00 +30°C° 0 mm 2 mps 635 mmHg 38%
    17:00 +29°C° 0 mm 2 mps 635 mmHg 44%
    18:00 +28°C° 0 mm 2 mps 635 mmHg 51%
    19:00 +25°C° 0.2 mm 2 mps 635 mmHg 59%
    20:00 +23°C° 0.2 mm 2 mps 635 mmHg 67%
    21:00 +19°C° 0.2 mm 2 mps 635 mmHg 75%
    22:00 +19°C° 0.1 mm 2 mps 635 mmHg 75%
    23:00 +19°C° 0.1 mm 2 mps 635 mmHg 75%

    27 July, Thursday

    Time Temperature Precipitation Wind Pressure Humidity
    00:00 +18°C° 0.1 mm 2 mps 635 mmHg 75%
    01:00 +18°C° 0 mm 2 mps 635 mmHg 75%
    02:00 +17°C° 0 mm 2 mps 635 mmHg 75%
    03:00 +17°C° 0 mm 2 mps 635 mmHg 74%
    04:00 +19°C° 0 mm 1 mps 635 mmHg 74%
    05:00 +19°C° 0 mm 1 mps 635 mmHg 73%
    06:00 +19°C° 0 mm 1 mps 636 mmHg 72%
    07:00 +22°C° 0 mm 1 mps 636 mmHg 64%
    08:00 +24°C° 0 mm 1 mps 637 mmHg 56%
    09:00 +27°C° 0 mm 1 mps 638 mmHg 47%
    10:00 +28°C° 0 mm 1 mps 638 mmHg 44%
    11:00 +29°C° 0 mm 2 mps 638 mmHg 40%
    12:00 +31°C° 0 mm 2 mps 638 mmHg 36%
    13:00 +31°C° 0 mm 2 mps 638 mmHg 36%
    14:00 +31°C° 0 mm 2 mps 637 mmHg 35%
    15:00 +32°C° 0 mm 2 mps 637 mmHg 34%
    16:00 +31°C° 0 mm 2 mps 637 mmHg 40%
    17:00 +30°C° 0 mm 2 mps 637 mmHg 45%
    18:00 +28°C° 0 mm 2 mps 636 mmHg 51%
    19:00 +26°C° 0 mm 2 mps 636 mmHg 56%
    20:00 +24°C° 0 mm 2 mps 636 mmHg 62%
    21:00 +21°C° 0 mm 2 mps 636 mmHg 67%
    22:00 +20°C° 0 mm 2 mps 636 mmHg 66%
    23:00 +20°C° 0 mm 2 mps 636 mmHg 65%
    Show more